Weather Roundup
Issued by NWS Chicago, IL

Home | Current Version | Previous Version | Graphics & Text | Print | Product List | Glossary On
Versions: 1 2 3 4 5 6 7 8 9 10 11 12 13 14 15 16 17 18 19 20 21 22 23 24 25 26 27 28 29 30 31 32 33 34 35 36 37 38 39 40 41 42 43 44 45 46 47 48 49 50
000
NZUS59 KLOT 302110
HRRLOT

CHICAGO AREA WEATHER ROUNDUP
NATIONAL WEATHER SERVICE CHICAGO/ROMEOVILLE IL
400 PM CDT TUE SEP 30 2014

NOTE: "FAIR" INDICATES FEW OR NO CLOUDS BELOW 12,000 FEET WITH NO
SIGNIFICANT WEATHER AND/OR OBSTRUCTIONS TO VISIBILITY.

* THESE STATIONS ARE NOT UNDER NWS QUALITY CONTROL. THEY ALSO MAY NOT
  REPORT WEATHER SUCH AS PRECIPITATION OR FOG.

ILZ005-006-012>014-019>023-302200-
NORTHEAST ILLINOIS

CITY           SKY/WX    TMP DP  RH WIND       PRES   REMARKS
OHARE          CLOUDY    58  46  64 NE15      30.01F
MIDWAY         PTSUNNY   58  48  69 N13       30.00F
AURORA         MOSUNNY   60  46  59 NE8       30.01S
LANSING*       DRIZZLE   55  49  79 N10       30.01S
JOLIET*        PTSUNNY   57  47  68 NE9       30.00S
WAUKEGAN       NOT AVBL
DUPAGE AIRPORT CLOUDY    57  46  66 E12       30.00F
WHEELING       CLOUDY    55  48  77 NE10      30.02F
KANKAKEE*      SUNNY     62  49  61 N12       29.99S
MORRIS*        MOSUNNY   61  49  64 E10G16    29.98F
LEWIS AIRPORT* CLOUDY    58  47  66 NE10      30.00F
NORTHERLY IS     N/A     56  49  77 N16         N/A
$$

WIZ051-052-058>065-066-070>072-302200-
SOUTHEAST WISCONSIN

CITY           SKY/WX    TMP DP  RH WIND       PRES   REMARKS
MILWAUKEE      CLOUDY    52  45  77 N14G21    30.04F
KENOSHA*       CLOUDY    54  46  74 VRB6      30.04S
RACINE*        LGT RAIN  51  47  86 N16       30.05F FOG
BURLINGTON     CLOUDY    54  42  66 NE6       30.02F
WAUKESHA       CLOUDY    54  43  66 E8        30.03F
WEST BEND      CLOUDY    50  41  71 NE7       30.04S
$$

INZ001>003-010>013-019-020-302200-
NORTHWEST INDIANA

CITY           SKY/WX    TMP DP  RH WIND       PRES   REMARKS
GARY*          CLOUDY    57  52  82 N12G23    30.02F
MICHIGAN CITY* NOT AVBL
RENSSELAER*    NOT AVBL
VALPARAISO     CLOUDY    56  46  69 N8G16     30.00S
$$

LMZ740>746-302200-
SOUTHERN LAKE MICHIGAN

STATION/POSITION TIME  SKY/WX   TEMP WIND        PRES    VSBY
                                AIR  DIR/SP/G
                 (UTC)          (F)  (DEG/KT/KT) (MB)    (MI)
HARRISON CRIB    2100            53   10/ 15/ 19   N/A
BURNHAM HARBOR   2100            55  340/  6/ 14   N/A
CALUMET HARBOR   2100            56  350/ 11/ 14 1015.3R
BURNS HARBOR     NOT AVBL
MICHIGAN CITY    2100            54  360/ 13/ 16   N/A
$$

ABBREVIATIONS USED IN REMARKS
   TC - TEMPERATURE IN CELSIUS
  WCI - WIND CHILL INDEX
   HX - HEAT INDEX
  VSB - VISIBILITY
$$


USA.gov is the U.S. government's official web portal to all federal, state and local government web resources and services.